AEE947 OLBA-LGAV

Flight info

Callsign AEE947
Flight time 1h 39m
Altitude 38000
Route KUKLA DCT DESPO DCT RUBIK DCT EVENO UM601 RDS UL995 USINI DCT AKINA UL995 VARIX
Aircraft A320/M-SDE3FGHIRWY/LB1

Departure

Time 2026-05-04 18:51
Airport Beirut Rafic Hariri International Airport (OLBA)

Arrival

Time 2026-05-04 20:31
Airport Athens Eleftherios Venizelos International Airport (LGAV)
Time Latitude Longitude Altitude Speed Heading
2026-05-04 17:34 33.82316 35.49417 23 ft 0 kts 311°
2026-05-04 18:43 33.82315 35.49419 24 ft 2 kts 312°
2026-05-04 18:43 33.82297 35.49441 24 ft 4 kts 320°
2026-05-04 18:43 33.82275 35.49459 24 ft 4 kts 339°
2026-05-04 18:43 33.82251 35.49462 24 ft 4 kts 28°
2026-05-04 18:44 33.82244 35.49457 24 ft 0 kts 34°
2026-05-04 18:47 33.82270 35.49479 23 ft 10 kts 34°
2026-05-04 18:47 33.82355 35.49549 23 ft 20 kts 34°
2026-05-04 18:47 33.82477 35.49652 23 ft 21 kts 35°
2026-05-04 18:47 33.82590 35.49748 23 ft 19 kts 35°
2026-05-04 18:48 33.82691 35.49836 24 ft 17 kts 35°
2026-05-04 18:48 33.82782 35.49913 24 ft 15 kts 35°
2026-05-04 18:48 33.82864 35.49983 23 ft 14 kts 35°
2026-05-04 18:48 33.82937 35.50045 24 ft 12 kts 35°
2026-05-04 18:49 33.82994 35.50107 24 ft 10 kts 65°
2026-05-04 18:49 33.82981 35.50178 42 ft 8 kts 132°
2026-05-04 18:49 33.82934 35.50199 40 ft 6 kts 175°
2026-05-04 18:49 33.82890 35.50193 40 ft 9 kts 194°
2026-05-04 18:50 33.82814 35.50141 28 ft 14 kts 210°
2026-05-04 18:50 33.82741 35.50187 40 ft 13 kts 124°
2026-05-04 18:50 33.82692 35.50256 42 ft 10 kts 150°
2026-05-04 18:50 33.82625 35.50254 42 ft 17 kts 203°
2026-05-04 18:51 33.82376 35.50075 24 ft 68 kts 215°
2026-05-04 18:51 33.81818 35.49634 24 ft 124 kts 213°
2026-05-04 18:51 33.80989 35.48988 251 ft 148 kts 213°
2026-05-04 18:51 33.80148 35.48283 892 ft 147 kts 218°
2026-05-04 18:52 33.79389 35.47457 1604 ft 147 kts 225°
2026-05-04 18:52 33.78656 35.46552 2140 ft 159 kts 225°
2026-05-04 18:52 33.77834 35.45542 2418 ft 179 kts 225°
2026-05-04 18:52 33.76896 35.44390 2662 ft 205 kts 226°
2026-05-04 18:53 33.75984 35.42968 2998 ft 229 kts 246°
2026-05-04 18:53 33.75811 35.41016 3617 ft 246 kts 279°
2026-05-04 18:53 33.76275 35.39753 4158 ft 256 kts 301°
2026-05-04 18:53 33.77417 35.38084 5019 ft 260 kts 306°
2026-05-04 18:54 33.78628 35.36462 5847 ft 263 kts 307°
2026-05-04 18:54 33.79871 35.34830 6655 ft 266 kts 307°
2026-05-04 18:54 33.81125 35.33187 7449 ft 268 kts 307°
2026-05-04 18:54 33.82384 35.31526 8244 ft 270 kts 307°
2026-05-04 18:55 33.83651 35.29841 9035 ft 273 kts 307°
2026-05-04 18:55 33.86219 35.26401 10378 ft 286 kts 307°
2026-05-04 18:55 33.87598 35.24538 10573 ft 309 kts 307°
2026-05-04 18:56 33.89077 35.22534 10733 ft 331 kts 308°
2026-05-04 18:56 33.90614 35.20458 11196 ft 340 kts 308°
2026-05-04 18:56 33.92198 35.18327 11837 ft 343 kts 308°
2026-05-04 18:56 33.93795 35.16179 12518 ft 346 kts 308°
2026-05-04 18:57 33.95410 35.14007 13192 ft 349 kts 308°
2026-05-04 18:57 33.97029 35.11826 13858 ft 351 kts 308°
2026-05-04 18:57 33.98665 35.09619 14442 ft 354 kts 308°
2026-05-04 18:57 34.00305 35.07403 15006 ft 357 kts 308°
2026-05-04 18:58 34.01966 35.05156 15566 ft 360 kts 308°
2026-05-04 18:58 34.03641 35.02887 16118 ft 363 kts 308°
2026-05-04 18:58 34.05332 35.00593 16682 ft 365 kts 308°
2026-05-04 18:58 34.07005 34.98325 17233 ft 368 kts 308°
2026-05-04 18:59 34.08713 34.96008 17772 ft 370 kts 308°
2026-05-04 18:59 34.10435 34.93667 18279 ft 373 kts 308°
2026-05-04 18:59 34.12164 34.91315 18736 ft 376 kts 308°
2026-05-04 18:59 34.13902 34.88947 19174 ft 379 kts 308°
2026-05-04 19:00 34.15657 34.86556 19639 ft 381 kts 308°
2026-05-04 19:00 34.17419 34.84155 20099 ft 383 kts 308°
2026-05-04 19:00 34.19193 34.81736 20536 ft 385 kts 308°
2026-05-04 19:00 34.20973 34.79306 20970 ft 387 kts 308°
2026-05-04 19:01 34.22764 34.76862 21400 ft 390 kts 308°
2026-05-04 19:01 34.24530 34.74364 21825 ft 390 kts 304°
2026-05-04 19:01 34.26078 34.71657 22263 ft 391 kts 301°
2026-05-04 19:01 34.27610 34.68931 22681 ft 393 kts 302°
2026-05-04 19:02 34.29157 34.66182 23092 ft 395 kts 302°
2026-05-04 19:02 34.30686 34.63466 23492 ft 397 kts 302°
2026-05-04 19:02 34.32247 34.60690 23821 ft 399 kts 301°
2026-05-04 19:02 34.33813 34.57905 24169 ft 400 kts 301°
2026-05-04 19:03 34.35377 34.55117 24518 ft 401 kts 301°
2026-05-04 19:03 34.36945 34.52313 24867 ft 402 kts 300°
2026-05-04 19:03 34.38512 34.49507 25219 ft 403 kts 300°
2026-05-04 19:03 34.40083 34.46693 25573 ft 404 kts 300°
2026-05-04 19:04 34.41660 34.43865 25902 ft 405 kts 300°
2026-05-04 19:04 34.43239 34.41030 26235 ft 406 kts 300°
2026-05-04 19:04 34.44764 34.38146 26553 ft 404 kts 294°
2026-05-04 19:04 34.45950 34.35070 26869 ft 403 kts 289°
2026-05-04 19:05 34.47059 34.31948 27180 ft 404 kts 289°
2026-05-04 19:05 34.48171 34.28817 27482 ft 405 kts 289°
2026-05-04 19:05 34.49287 34.25676 27773 ft 405 kts 289°
2026-05-04 19:05 34.50403 34.22538 28081 ft 406 kts 289°
2026-05-04 19:06 34.51524 34.19382 28336 ft 408 kts 289°
2026-05-04 19:06 34.52650 34.16211 28578 ft 410 kts 289°
2026-05-04 19:06 34.53781 34.13027 28844 ft 412 kts 289°
2026-05-04 19:06 34.54903 34.09869 29106 ft 412 kts 289°
2026-05-04 19:07 34.56036 34.06676 29501 ft 411 kts 289°
2026-05-04 19:07 34.57163 34.03492 29917 ft 409 kts 289°
2026-05-04 19:07 34.58282 34.00327 30257 ft 407 kts 289°
2026-05-04 19:07 34.59397 33.97165 30554 ft 406 kts 288°
2026-05-04 19:08 34.60504 33.94018 30839 ft 406 kts 289°
2026-05-04 19:08 34.61610 33.90856 31036 ft 407 kts 289°
2026-05-04 19:08 34.62717 33.87691 31247 ft 408 kts 289°
2026-05-04 19:08 34.63825 33.84529 31480 ft 408 kts 289°
2026-05-04 19:09 34.64940 33.81351 31755 ft 408 kts 289°
2026-05-04 19:09 34.66056 33.78177 32039 ft 407 kts 289°
2026-05-04 19:09 34.67169 33.75017 32322 ft 407 kts 289°
2026-05-04 19:09 34.68264 33.71899 32610 ft 406 kts 289°
2026-05-04 19:10 34.69370 33.68744 32890 ft 405 kts 289°
2026-05-04 19:10 34.70472 33.65589 33132 ft 406 kts 289°
2026-05-04 19:10 34.71577 33.62422 33390 ft 406 kts 289°
2026-05-04 19:10 34.72679 33.59263 33658 ft 406 kts 289°
2026-05-04 19:11 34.73776 33.56112 33934 ft 405 kts 289°
2026-05-04 19:11 34.74875 33.52955 34162 ft 405 kts 289°
2026-05-04 19:11 34.75974 33.49798 34376 ft 405 kts 289°
2026-05-04 19:11 34.77071 33.46641 34579 ft 405 kts 289°
2026-05-04 19:12 34.78163 33.43487 34776 ft 405 kts 289°
2026-05-04 19:12 34.80340 33.37195 35157 ft 406 kts 289°
2026-05-04 19:12 34.81433 33.34026 35336 ft 406 kts 289°
2026-05-04 19:13 34.82524 33.30860 35505 ft 406 kts 289°
2026-05-04 19:13 34.83618 33.27685 35683 ft 406 kts 289°
2026-05-04 19:13 34.84712 33.24514 35857 ft 406 kts 289°
2026-05-04 19:13 34.85806 33.21343 36033 ft 406 kts 289°
2026-05-04 19:14 34.86898 33.18172 36196 ft 406 kts 289°
2026-05-04 19:14 34.87991 33.14990 36385 ft 407 kts 289°
2026-05-04 19:14 34.89083 33.11811 36534 ft 408 kts 290°
2026-05-04 19:14 34.90177 33.08625 36685 ft 408 kts 289°
2026-05-04 19:15 34.91251 33.05425 36842 ft 408 kts 289°
2026-05-04 19:15 34.92280 33.02240 37000 ft 408 kts 288°
2026-05-04 19:15 34.93298 32.99011 37161 ft 408 kts 288°
2026-05-04 19:15 34.94306 32.95778 37302 ft 408 kts 288°
2026-05-04 19:16 34.95314 32.92539 37435 ft 408 kts 288°
2026-05-04 19:16 34.96323 32.89307 37590 ft 408 kts 288°
2026-05-04 19:16 34.97340 32.86067 37732 ft 409 kts 288°
2026-05-04 19:16 34.98357 32.82834 37886 ft 409 kts 288°
2026-05-04 19:17 34.99379 32.79590 37932 ft 410 kts 288°
2026-05-04 19:17 35.01424 32.73086 37930 ft 411 kts 288°
2026-05-04 19:18 35.03477 32.66560 37927 ft 411 kts 288°
2026-05-04 19:18 35.05522 32.60049 37931 ft 411 kts 289°
2026-05-04 19:19 35.07559 32.53516 37925 ft 412 kts 288°
2026-05-04 19:19 35.09600 32.46967 37926 ft 413 kts 289°
2026-05-04 19:20 35.11631 32.40455 37934 ft 413 kts 289°
2026-05-04 19:20 35.13663 32.33897 37940 ft 413 kts 289°
2026-05-04 19:21 35.15694 32.27322 37934 ft 413 kts 289°
2026-05-04 19:21 35.17730 32.20742 37934 ft 414 kts 289°
2026-05-04 19:22 35.19770 32.14149 37933 ft 414 kts 289°
2026-05-04 19:22 35.21795 32.07586 37936 ft 415 kts 289°
2026-05-04 19:23 35.23828 32.00978 37943 ft 415 kts 289°
2026-05-04 19:23 35.25853 31.94347 37940 ft 415 kts 289°
2026-05-04 19:24 35.27870 31.87720 37942 ft 416 kts 289°
2026-05-04 19:24 35.29893 31.81088 37942 ft 416 kts 289°
2026-05-04 19:25 35.31921 31.74444 37944 ft 417 kts 289°
2026-05-04 19:25 35.33944 31.67790 37949 ft 417 kts 289°
2026-05-04 19:26 35.35955 31.61116 37943 ft 417 kts 289°
2026-05-04 19:26 35.37957 31.54479 37943 ft 417 kts 289°
2026-05-04 19:27 35.39970 31.47809 37945 ft 417 kts 289°
2026-05-04 19:27 35.41980 31.41143 37946 ft 417 kts 289°
2026-05-04 19:28 35.43983 31.34460 37955 ft 417 kts 289°
2026-05-04 19:28 35.45990 31.27762 37949 ft 418 kts 289°
2026-05-04 19:29 35.47978 31.21110 37936 ft 419 kts 289°
2026-05-04 19:29 35.49982 31.14380 37933 ft 420 kts 289°
2026-05-04 19:30 35.51983 31.07644 37927 ft 420 kts 289°
2026-05-04 19:30 35.53981 31.00893 37921 ft 421 kts 289°
2026-05-04 19:31 35.55978 30.94127 37925 ft 421 kts 289°
2026-05-04 19:31 35.57965 30.87403 37922 ft 422 kts 289°
2026-05-04 19:32 35.59968 30.80608 37929 ft 423 kts 289°
2026-05-04 19:32 35.61974 30.73798 37944 ft 423 kts 289°
2026-05-04 19:33 35.63967 30.66967 37943 ft 423 kts 289°
2026-05-04 19:33 35.65948 30.60196 37945 ft 423 kts 289°
2026-05-04 19:34 35.67948 30.53376 37938 ft 423 kts 289°
2026-05-04 19:34 35.69925 30.46545 37940 ft 424 kts 289°
2026-05-04 19:35 35.71903 30.39715 37943 ft 424 kts 289°
2026-05-04 19:35 35.73892 30.32868 37939 ft 424 kts 289°
2026-05-04 19:36 35.75857 30.26076 37940 ft 424 kts 289°
2026-05-04 19:36 35.77831 30.19225 37941 ft 424 kts 289°
2026-05-04 19:37 35.79797 30.12372 37952 ft 424 kts 289°
2026-05-04 19:37 35.81761 30.05508 37935 ft 425 kts 289°
2026-05-04 19:38 35.83723 29.98638 37931 ft 425 kts 289°
2026-05-04 19:38 35.85314 29.92886 37938 ft 425 kts 289°
2026-05-04 19:39 35.87177 29.85956 37934 ft 426 kts 288°
2026-05-04 19:39 35.89037 29.79012 37941 ft 426 kts 289°
2026-05-04 19:40 35.90906 29.72080 37941 ft 426 kts 289°
2026-05-04 19:40 35.92766 29.65183 37953 ft 426 kts 289°
2026-05-04 19:41 35.94626 29.58230 37963 ft 426 kts 289°
2026-05-04 19:41 35.96483 29.51295 37960 ft 426 kts 289°
2026-05-04 19:42 35.98364 29.44346 37964 ft 426 kts 289°
2026-05-04 19:42 36.00237 29.37411 37968 ft 426 kts 289°
2026-05-04 19:43 36.02082 29.30498 37979 ft 426 kts 289°
2026-05-04 19:43 36.03939 29.23543 37989 ft 426 kts 289°
2026-05-04 19:44 36.05796 29.16586 37997 ft 426 kts 289°
2026-05-04 19:44 36.07639 29.09636 38012 ft 425 kts 289°
2026-05-04 19:45 36.09479 29.02687 38007 ft 425 kts 289°
2026-05-04 19:45 36.11319 28.95749 38017 ft 424 kts 289°
2026-05-04 19:46 36.13147 28.88814 38016 ft 424 kts 289°
2026-05-04 19:46 36.14968 28.81868 38016 ft 424 kts 289°
2026-05-04 19:47 36.16789 28.74916 38019 ft 424 kts 289°
2026-05-04 19:47 36.18591 28.68019 38018 ft 424 kts 289°
2026-05-04 19:48 36.20404 28.61056 38009 ft 424 kts 290°
2026-05-04 19:48 36.22215 28.54091 38017 ft 425 kts 290°
2026-05-04 19:49 36.24018 28.47128 38020 ft 425 kts 290°
2026-05-04 19:49 36.25288 28.42222 38025 ft 425 kts 290°
2026-05-04 19:50 36.27039 28.35426 38027 ft 425 kts 290°
2026-05-04 19:50 36.28828 28.28444 38044 ft 425 kts 290°
2026-05-04 19:51 36.30614 28.21455 38045 ft 424 kts 290°
2026-05-04 19:51 36.32282 28.14895 38046 ft 424 kts 290°
2026-05-04 19:52 36.34097 28.07940 38044 ft 423 kts 294°
2026-05-04 19:52 36.36486 28.01272 38032 ft 422 kts 296°
2026-05-04 19:53 36.38882 27.94607 38043 ft 422 kts 296°
2026-05-04 19:53 36.41269 27.87949 38049 ft 422 kts 296°
2026-05-04 19:54 36.43631 27.81323 38051 ft 422 kts 296°
2026-05-04 19:54 36.44847 27.77903 38053 ft 422 kts 296°
2026-05-04 19:55 36.45803 27.75218 38051 ft 422 kts 296°
2026-05-04 19:55 36.47904 27.69317 38051 ft 422 kts 296°
2026-05-04 19:56 36.50180 27.62936 38055 ft 422 kts 296°
2026-05-04 19:56 36.52144 27.57415 38067 ft 422 kts 296°
2026-05-04 19:57 36.54509 27.50739 38068 ft 422 kts 295°
2026-05-04 19:57 36.56860 27.44064 38076 ft 421 kts 295°
2026-05-04 19:58 36.59212 27.37377 38068 ft 421 kts 295°
2026-05-04 19:58 36.61548 27.30733 38067 ft 421 kts 295°
2026-05-04 19:59 36.63895 27.24046 38067 ft 421 kts 295°
2026-05-04 19:59 36.66228 27.17362 38097 ft 421 kts 295°
2026-05-04 20:00 36.68561 27.10672 38086 ft 420 kts 295°
2026-05-04 20:00 36.70882 27.03992 38095 ft 419 kts 295°
2026-05-04 20:01 36.73192 26.97329 38096 ft 419 kts 295°
2026-05-04 20:01 36.75508 26.90664 38091 ft 418 kts 295°
2026-05-04 20:02 36.77803 26.84039 38077 ft 418 kts 296°
2026-05-04 20:02 36.80103 26.77381 38077 ft 418 kts 295°
2026-05-04 20:03 36.82401 26.70698 38087 ft 418 kts 295°
2026-05-04 20:03 36.84693 26.64023 38093 ft 418 kts 295°
2026-05-04 20:04 36.86978 26.57332 38096 ft 418 kts 295°
2026-05-04 20:04 36.89263 26.50650 38089 ft 418 kts 295°
2026-05-04 20:05 36.91527 26.44013 38101 ft 418 kts 295°
2026-05-04 20:05 36.93804 26.37323 38109 ft 418 kts 295°
2026-05-04 20:06 36.96077 26.30631 38108 ft 418 kts 295°
2026-05-04 20:06 36.98331 26.23966 38105 ft 418 kts 295°
2026-05-04 20:07 37.00606 26.17277 38114 ft 417 kts 295°
2026-05-04 20:07 37.02873 26.10595 38127 ft 417 kts 295°
2026-05-04 20:08 37.05143 26.03899 38120 ft 418 kts 295°
2026-05-04 20:08 37.07416 25.97180 38123 ft 418 kts 295°
2026-05-04 20:09 37.09660 25.90506 38121 ft 418 kts 295°
2026-05-04 20:09 37.11917 25.83789 38130 ft 418 kts 295°
2026-05-04 20:10 37.14170 25.77080 38133 ft 418 kts 295°
2026-05-04 20:10 37.16417 25.70368 38140 ft 417 kts 295°
2026-05-04 20:11 37.18654 25.63661 38123 ft 417 kts 295°
2026-05-04 20:11 37.19767 25.60301 37616 ft 419 kts 295°
2026-05-04 20:11 37.20896 25.56901 36721 ft 424 kts 295°
2026-05-04 20:11 37.22028 25.53490 36132 ft 422 kts 295°
2026-05-04 20:12 37.23160 25.50078 35425 ft 424 kts 295°
2026-05-04 20:12 37.24284 25.46645 34658 ft 427 kts 295°
2026-05-04 20:12 37.25408 25.43164 33820 ft 431 kts 295°
2026-05-04 20:12 37.26517 25.39692 32878 ft 436 kts 294°
2026-05-04 20:13 37.27645 25.36133 31955 ft 440 kts 294°
2026-05-04 20:13 37.28723 25.32509 31001 ft 445 kts 291°
2026-05-04 20:13 37.29737 25.28807 30046 ft 450 kts 290°
2026-05-04 20:13 37.30709 25.25060 29137 ft 451 kts 290°
2026-05-04 20:14 37.31657 25.21334 28463 ft 446 kts 290°
2026-05-04 20:14 37.32601 25.17645 27809 ft 441 kts 290°
2026-05-04 20:14 37.33552 25.13997 27171 ft 437 kts 290°
2026-05-04 20:14 37.34506 25.10393 26564 ft 432 kts 291°
2026-05-04 20:15 37.35460 25.06826 25969 ft 428 kts 291°
2026-05-04 20:15 37.36410 25.03294 25383 ft 424 kts 291°
2026-05-04 20:15 37.37352 24.99795 24782 ft 421 kts 291°
2026-05-04 20:15 37.38282 24.96320 24196 ft 418 kts 291°
2026-05-04 20:16 37.39200 24.92863 23617 ft 415 kts 291°
2026-05-04 20:16 37.40108 24.89438 22981 ft 411 kts 291°
2026-05-04 20:16 37.40995 24.86089 22390 ft 407 kts 291°
2026-05-04 20:16 37.41887 24.82717 21831 ft 403 kts 291°
2026-05-04 20:17 37.42768 24.79379 21267 ft 399 kts 291°
2026-05-04 20:17 37.43638 24.76081 20727 ft 396 kts 291°
2026-05-04 20:17 37.44501 24.72802 20194 ft 392 kts 291°
2026-05-04 20:17 37.45360 24.69536 19298 ft 398 kts 291°
2026-05-04 20:18 37.46242 24.66190 18464 ft 403 kts 291°
2026-05-04 20:18 37.47123 24.62845 17770 ft 402 kts 291°
2026-05-04 20:18 37.47997 24.59519 17126 ft 398 kts 291°
2026-05-04 20:18 37.48865 24.56209 16532 ft 395 kts 291°
2026-05-04 20:19 37.49719 24.52940 15934 ft 392 kts 291°
2026-05-04 20:19 37.50555 24.49730 15362 ft 389 kts 291°
2026-05-04 20:19 37.51395 24.46504 14803 ft 386 kts 291°
2026-05-04 20:19 37.52227 24.43303 14248 ft 383 kts 291°
2026-05-04 20:20 37.53066 24.40079 13351 ft 397 kts 291°
2026-05-04 20:20 37.53936 24.36746 12295 ft 402 kts 291°
2026-05-04 20:20 37.54810 24.33382 11436 ft 402 kts 291°
2026-05-04 20:20 37.55705 24.30089 10778 ft 393 kts 295°
2026-05-04 20:21 37.56954 24.27062 10126 ft 386 kts 302°
2026-05-04 20:21 37.58258 24.24136 9384 ft 381 kts 302°
2026-05-04 20:21 37.60837 24.18369 7817 ft 375 kts 302°
2026-05-04 20:22 37.62111 24.15519 7043 ft 372 kts 302°
2026-05-04 20:22 37.63377 24.12678 6250 ft 370 kts 302°
2026-05-04 20:22 37.64631 24.09861 5446 ft 367 kts 302°
2026-05-04 20:22 37.65456 24.08002 4921 ft 365 kts 302°
2026-05-04 20:23 37.66689 24.05217 4096 ft 361 kts 301°
2026-05-04 20:23 37.67904 24.02470 3365 ft 356 kts 301°
2026-05-04 20:23 37.69450 23.98964 3028 ft 332 kts 301°
2026-05-04 20:23 37.70536 23.96499 3009 ft 310 kts 301°
2026-05-04 20:24 37.71544 23.94207 3008 ft 285 kts 301°
2026-05-04 20:24 37.72168 23.92788 3013 ft 263 kts 301°
2026-05-04 20:24 37.73005 23.90883 3026 ft 233 kts 301°
2026-05-04 20:24 37.73770 23.89147 3031 ft 224 kts 302°
2026-05-04 20:25 37.74521 23.87448 3032 ft 217 kts 302°
2026-05-04 20:25 37.75227 23.85844 3031 ft 201 kts 302°
2026-05-04 20:25 37.75871 23.84379 3034 ft 187 kts 302°
2026-05-04 20:25 37.76483 23.82987 3018 ft 175 kts 302°
2026-05-04 20:26 37.77059 23.81683 3034 ft 168 kts 304°
2026-05-04 20:26 37.77852 23.80653 3033 ft 164 kts 332°
2026-05-04 20:26 37.78924 23.80226 3033 ft 162 kts 358°
2026-05-04 20:26 37.80031 23.80479 3020 ft 164 kts 25°
2026-05-04 20:27 37.80981 23.81290 3002 ft 167 kts 34°
2026-05-04 20:27 37.81907 23.82169 2841 ft 167 kts 34°
2026-05-04 20:27 37.82834 23.83049 2646 ft 166 kts 34°
2026-05-04 20:27 37.83762 23.83927 2428 ft 167 kts 34°
2026-05-04 20:28 37.84683 23.84800 2247 ft 163 kts 35°
2026-05-04 20:28 37.85561 23.85632 2023 ft 156 kts 35°
2026-05-04 20:28 37.86420 23.86446 1789 ft 153 kts 35°
2026-05-04 20:28 37.87268 23.87251 1609 ft 151 kts 35°
2026-05-04 20:29 37.88093 23.88034 1391 ft 146 kts 36°
2026-05-04 20:29 37.88897 23.88806 1153 ft 144 kts 36°
2026-05-04 20:29 37.89689 23.89579 972 ft 143 kts 36°
2026-05-04 20:29 37.90487 23.90331 781 ft 142 kts 35°
2026-05-04 20:30 37.91280 23.91075 641 ft 142 kts 36°
2026-05-04 20:30 37.92067 23.91822 453 ft 141 kts 36°
2026-05-04 20:30 37.92853 23.92562 313 ft 136 kts 36°
2026-05-04 20:30 37.93536 23.93214 294 ft 104 kts 37°
2026-05-04 20:31 37.93968 23.93620 294 ft 39 kts 37°
2026-05-04 20:31 37.94125 23.93771 300 ft 27 kts 37°
2026-05-04 20:31 37.94277 23.93920 301 ft 31 kts 38°
2026-05-04 20:31 37.94475 23.94108 304 ft 38 kts 36°
2026-05-04 20:32 37.94689 23.94305 304 ft 38 kts 36°
2026-05-04 20:32 37.94789 23.94430 307 ft 14 kts 84°
2026-05-04 20:32 37.94742 23.94530 305 ft 14 kts 128°
2026-05-04 20:32 37.94683 23.94627 303 ft 14 kts 128°
2026-05-04 20:33 37.94627 23.94718 304 ft 12 kts 127°
2026-05-04 20:33 37.94578 23.94801 303 ft 11 kts 126°
2026-05-04 20:33 37.94525 23.94892 301 ft 14 kts 126°
2026-05-04 20:33 37.94459 23.95006 301 ft 18 kts 127°
2026-05-04 20:34 37.94378 23.95143 302 ft 20 kts 127°
2026-05-04 20:34 37.94289 23.95291 303 ft 21 kts 127°
2026-05-04 20:34 37.94228 23.95396 301 ft 13 kts 128°
2026-05-04 20:34 37.94177 23.95480 302 ft 11 kts 128°
2026-05-04 20:35 37.94129 23.95552 299 ft 10 kts 145°
2026-05-04 20:35 37.94069 23.95536 299 ft 9 kts 213°
2026-05-04 20:35 37.94026 23.95494 301 ft 7 kts 217°
2026-05-04 20:35 37.93991 23.95461 300 ft 5 kts 217°
2026-05-04 20:36 37.93952 23.95423 300 ft 13 kts 217°
2026-05-04 20:36 37.93905 23.95357 301 ft 8 kts 259°
2026-05-04 20:36 37.93921 23.95303 301 ft 5 kts 307°
2026-05-04 20:36 37.93946 23.95261 302 ft 9 kts 306°
2026-05-04 20:37 37.93990 23.95183 302 ft 10 kts 307°
2026-05-04 20:37 37.94034 23.95171 301 ft 6 kts 26°
2026-05-04 20:37 37.94065 23.95199 301 ft 5 kts 38°
2026-05-04 20:37 37.94072 23.95206 303 ft 1 kts 38°